TimeHST,TemperatureF,Dew PointF,Humidity,Sea Level PressureIn,VisibilityMPH,Wind Direction,Wind SpeedMPH,Gust SpeedMPH,PrecipitationIn,Events,Conditions,WindDirDegrees,DateUTC
12:55 AM,62.1,60.1,93,29.99,10.0,NW,3.5,-,N/A,,Scattered Clouds,320,2013-03-11 10:55:00
1:55 AM,61.9,59.9,93,29.98,10.0,NNW,3.5,-,N/A,,Partly Cloudy,340,2013-03-11 11:55:00
2:55 AM,60.8,58.8,93,29.96,10.0,North,3.5,-,N/A,,Clear,360,2013-03-11 12:55:00
3:55 AM,60.4,58.5,93,29.95,10.0,NW,5.8,-,N/A,,Clear,320,2013-03-11 13:55:00
4:55 AM,59.9,57.9,93,29.96,10.0,NNW,4.6,-,N/A,,Clear,340,2013-03-11 14:55:00
5:55 AM,59.5,57.6,93,29.97,10.0,NNW,4.6,-,N/A,,Clear,340,2013-03-11 15:55:00
6:55 AM,59.4,57.4,93,30.00,10.0,NNW,4.6,-,N/A,,Clear,330,2013-03-11 16:55:00
7:55 AM,63.1,60.4,91,30.02,10.0,NW,3.5,-,N/A,,Clear,320,2013-03-11 17:55:00
8:55 AM,68.2,62.6,82,30.04,10.0,NW,4.6,-,N/A,,Mostly Cloudy,320,2013-03-11 18:55:00
9:55 AM,70.9,61.3,72,30.04,10.0,North,3.5,-,N/A,,Clear,350,2013-03-11 19:55:00
10:55 AM,72.9,60.3,65,30.04,10.0,Variable,3.5,-,N/A,,Scattered Clouds,0,2013-03-11 20:55:00
11:55 AM,72.0,60.8,68,30.03,10.0,Calm,Calm,-,N/A,,Mostly Cloudy,0,2013-03-11 21:55:00
12:55 PM,71.8,61.9,71,30.01,10.0,WNW,9.2,-,N/A,,Mostly Cloudy,300,2013-03-11 22:55:00
1:55 PM,72.7,61.7,68,29.97,10.0,NNW,6.9,-,N/A,,Mostly Cloudy,330,2013-03-11 23:55:00
2:55 PM,73.2,61.9,68,29.96,10.0,NW,12.7,-,N/A,,Scattered Clouds,320,2013-03-12 00:55:00
3:55 PM,73.0,61.9,68,29.96,10.0,NNW,10.4,-,N/A,,Mostly Cloudy,330,2013-03-12 01:55:00
4:55 PM,71.4,61.2,70,29.97,10.0,NNW,9.2,-,N/A,,Mostly Cloudy,330,2013-03-12 02:55:00
5:55 PM,69.6,60.6,73,29.98,10.0,NW,8.1,-,N/A,,Mostly Cloudy,310,2013-03-12 03:55:00
6:55 PM,68.7,60.3,74,29.99,10.0,NW,6.9,-,N/A,,Mostly Cloudy,310,2013-03-12 04:55:00
7:55 PM,67.3,59.9,77,30.02,10.0,NNW,4.6,-,N/A,,Mostly Cloudy,330,2013-03-12 05:55:00
8:55 PM,64.6,59.7,84,30.04,10.0,Calm,Calm,-,N/A,,Clear,0,2013-03-12 06:55:00
9:55 PM,63.5,59.0,85,30.05,10.0,WNW,5.8,-,N/A,,Scattered Clouds,300,2013-03-12 07:55:00
10:55 PM,63.3,58.8,85,30.04,10.0,NNW,4.6,-,N/A,,Mostly Cloudy,330,2013-03-12 08:55:00
11:55 PM,63.7,59.0,85,30.02,10.0,Calm,Calm,-,N/A,,Mostly Cloudy,0,2013-03-12 09:55:00